Location: Katzenstein
(51.7484°N, 10.2155°E)
Time: 17:00:55
(UTC+00:00)

IDEFIX/ARIANE 42P - Pass Details

Date: 17 February 2020
Orbit: 784 x 804 km, 98.3° (Epoch: 29 March)

Event Time Altitude Azimuth Distance (km) Brightness Sun altitude
Rises 05:24:28 0° 2° (N) 3,324 5.8 -10.9°
Reaches altitude 10° 05:29:02 10° 326° (NW) 2,383 4.7 -10.2°
Maximum altitude 05:30:02 11° 315° (NW) 2,343 4.5 -10.0°
Drops below altitude 10° 05:31:02 10° 303° (WNW) 2,378 4.5 -9.9°
Enters shadow 05:31:14 10° 301° (WNW) 2,394 4.5 -9.8°
